Location: El Conde
(10.2895°N, 67.2409°W)
Time: 18:03:01
(UTC+00:00)

Cosmos 1980 - Pass Details

Date: 19 May 2024
Orbit: 839 x 846 km, 71.0° (Epoch: 12 June)

Event Time Altitude Azimuth Distance (km) Brightness Sun altitude
Rises 23:09:55 0° 194° (SSW) 3,385 6.8 -6.7°
Reaches altitude 10° 23:12:21 10° 193° (SSW) 2,450 6.0 -7.3°
Maximum altitude 23:17:58 84° 106° (ESE) 846 3.7 -8.5°
Drops below altitude 10° 23:23:36 10° 18° (NNE) 2,446 6.2 -9.8°
Sets 23:26:02 0° 17° (NNE) 3,379 6.9 -10.4°
